Lapse_Rate
7.0 6.8 6.5 6.4 6.2 6.3 6.1 6.4 6.5 6.2 5.9 5.5 5.7 5.4 5.4 5.8 7.5 6.5 6.6 7.0 7.4 7.6 7.7 8.3 8.1 8.0 8.0 8.1 8.1 8.3 8.6 8.4 8.1 7.7 8.0 8.0 8.1 8.1 8.1 8.1 7.3 7.7 7.4 7.6
6.6 6.3 6.0 5.8 5.7 5.6 6.1 6.0 6.3 6.1 5.9 5.8 5.7 5.8 5.8 5.8 7.1 7.2 6.8 6.8 7.4 7.8 7.5 7.7 8.4 8.3 8.1 8.4 8.2 8.5 8.7 8.5 8.2 7.6 7.7 8.1 7.7 7.8 7.9 7.8 7.7 7.7 6.5 7.5
6.1 5.9 5.6 5.4 4.9 4.9 5.2 5.7 5.9 5.7 5.8 6.0 6.0 6.0 6.0 5.9 6.5 7.0 6.6 6.7 7.1 7.6 7.8 7.7 7.7 8.3 8.4 8.6 8.1 8.3 8.7 8.6 8.1 7.0 7.0 7.5 7.5 7.5 7.7 7.5 7.4 7.4 7.3 7.6
5.9 5.8 5.4 5.1 4.6 4.4 4.7 4.7 5.0 5.4 5.6 5.7 5.8 5.9 5.8 6.1 6.3 6.5 7.0 6.9 6.9 7.4 7.6 7.9 7.9 7.9 8.6 8.7 8.4 8.2 8.6 8.4 8.5 7.8 7.7 7.7 7.9 7.7 7.8 7.6 7.4 7.3 7.5 7.6
5.9 5.7 5.2 4.8 4.5 4.4 4.6 4.8 5.0 5.3 5.6 5.9 5.8 6.0 6.4 6.3 6.8 6.5 6.8 6.6 7.5 7.8 7.4 7.9 8.0 8.2 8.1 8.6 8.7 8.3 8.0 8.0 8.2 8.1 7.8 7.9 7.8 8.0 7.8 7.8 7.7 7.2 7.4 7.6
5.9 5.7 5.2 4.7 4.5 4.6 4.9 5.1 5.3 5.3 5.7 6.0 5.7 6.5 6.8 6.7 6.5 6.5 6.8 6.7 7.4 7.5 7.6 7.4 7.5 8.1 8.0 8.1 8.5 8.6 8.4 7.9 7.9 8.0 8.0 8.0 7.6 7.7 7.8 7.9 7.6 7.4 7.5 7.7
5.9 5.9 5.5 4.9 4.6 4.7 4.9 5.0 5.1 5.2 5.6 5.8 5.9 6.1 6.2 6.4 6.7 6.5 6.8 6.8 6.6 7.2 7.8 7.4 7.4 7.6 7.6 8.0 8.2 8.2 8.5 8.3 8.1 7.8 8.1 6.3 7.5 7.9 7.7 7.4 7.7 7.6 7.6 7.8
6.1 6.1 5.9 5.3 4.9 5.1 5.5 5.5 5.4 5.3 5.6 5.9 6.4 6.3 6.2 6.5 6.7 6.5 6.4 7.1 7.1 7.3 7.1 7.1 7.4 7.1 7.4 7.8 7.8 7.9 8.0 7.9 7.8 7.7 7.7 7.6 7.4 7.8 8.2 7.8 7.6 7.8 7.7 7.8
6.2 6.2 6.3 6.1 5.9 6.2 6.3 6.2 6.0 5.9 5.7 6.2 6.1 6.2 6.3 6.6 6.6 6.6 6.8 7.5 7.6 7.1 6.8 6.9 7.1 7.1 7.0 7.5 7.8 7.7 8.0 7.8 7.8 7.6 7.5 5.7 7.2 7.7 7.8 8.2 7.6 8.0 8.0 7.9
6.2 6.2 6.6 6.9 6.9 6.8 6.7 6.6 6.4 6.3 6.1 6.9 6.2 6.3 6.4 6.3 6.2 6.3 6.7 7.2 7.2 7.1 6.9 7.0 6.7 7.0 7.5 7.8 7.6 7.7 7.7 8.2 7.8 7.7 7.5 7.3 7.2 8.0 7.8 7.6 7.2 7.9 8.0 8.1
6.3 6.5 7.0 7.5 7.1 6.9 7.0 6.9 6.7 6.6 6.6 7.7 6.7 6.7 6.5 6.5 6.3 6.2 6.6 7.0 7.3 7.3 7.1 7.1 7.1 7.1 7.6 7.7 7.9 8.1 7.8 7.9 7.8 7.7 7.4 6.5 7.2 8.0 7.8 7.5 7.7 7.6 7.9 8.0
6.4 6.9 7.3 7.5 7.2 6.8 7.0 7.1 6.9 7.2 7.3 8.0 7.6 7.4 7.0 6.6 6.7 6.6 6.3 6.5 6.7 6.6 7.0 7.1 7.1 7.4 7.7 7.8 8.0 8.2 8.2 8.0 7.8 7.8 7.2 7.2 7.7 8.1 8.2 7.8 7.9 8.0 7.8 7.9
6.7 7.3 7.5 7.5 7.3 6.9 7.0 7.1 7.1 7.5 7.8 8.5 8.3 8.4 7.8 6.9 6.6 6.4 6.6 6.2 6.2 6.4 6.3 6.6 7.0 7.1 7.5 7.7 7.9 8.6 7.5 8.0 7.9 8.0 7.6 7.7 8.3 8.4 8.3 8.2 8.0 7.8 7.7 7.9
7.3 7.6 7.6 7.4 7.3 7.1 7.1 7.1 7.2 7.8 8.0 8.1 8.7 8.5 8.3 7.7 6.9 6.7 6.5 6.4 6.4 6.1 6.3 6.2 6.7 7.2 7.5 7.5 7.5 8.2 8.1 7.3 7.3 7.5 7.5 7.7 8.1 8.5 8.4 8.4 8.2 7.8 7.8 7.7
7.5 7.7 7.7 7.7 7.5 7.2 7.1 7.2 7.5 7.9 8.1 8.1 8.4 8.6 8.6 8.2 7.7 6.8 6.8 6.3 6.1 5.9 6.0 6.3 6.3 6.8 7.0 7.2 7.3 7.6 7.5 7.6 7.1 7.0 7.5 7.2 7.6 8.2 8.1 8.2 8.4 7.8 7.5 7.6
7.8 7.8 7.8 7.8 7.6 7.4 7.1 7.3 7.3 7.9 8.1 8.2 8.5 8.7 8.7 8.4 7.9 7.4 6.8 6.5 6.4 6.2 6.1 6.2 6.3 6.4 6.6 6.9 6.9 7.4 7.6 7.3 6.9 6.8 7.0 7.1 7.4 8.1 8.0 7.7 8.1 8.0 7.6 7.4
8.1 7.9 7.9 7.7 7.7 7.5 7.4 7.2 7.3 7.9 8.3 8.1 8.2 8.4 8.8 8.7 8.1 7.6 7.0 6.5 6.2 5.9 6.1 6.1 6.3 6.6 6.3 6.4 6.8 7.4 7.4 7.3 7.1 6.9 6.3 6.9 7.2 7.6 7.5 7.3 7.4 7.6 7.8 7.4
8.0 7.8 7.8 7.7 7.6 7.5 7.5 7.5 7.1 7.5 8.0 8.3 8.1 8.3 8.5 8.5 8.2 7.9 7.4 7.0 6.5 6.2 6.1 6.2 6.2 6.3 6.4 6.5 7.2 7.4 7.6 7.6 7.4 7.1 6.7 6.7 6.8 6.5 6.9 6.9 7.5 7.3 7.6 7.4
8.1 8.0 8.0 7.9 7.5 7.8 7.9 7.3 7.2 7.1 7.6 7.9 8.0 8.1 8.2 8.3 8.1 8.1 8.1 7.6 6.9 6.6 6.4 6.5 6.3 6.5 6.5 6.9 7.1 7.2 7.2 7.2 7.7 7.4 7.2 7.3 7.2 6.8 6.7 7.0 7.6 7.3 7.0 7.3
8.1 8.1 8.1 7.9 8.1 8.0 7.7 7.4 7.2 7.3 7.5 7.8 8.3 8.5 8.2 8.1 8.1 8.0 8.0 7.9 7.7 7.0 7.2 6.8 6.4 6.6 7.0 6.8 6.8 7.4 7.5 7.3 7.6 7.3 7.3 7.4 7.4 7.3 6.9 7.0 7.3 7.6 7.4 7.3
8.3 8.2 8.2 8.0 8.2 7.9 7.6 7.4 7.4 7.7 7.6 8.4 9.1 9.0 8.5 8.4 8.2 8.0 7.9 8.0 8.1 8.0 8.2 7.4 6.9 6.7 7.0 6.9 6.6 6.8 7.2 7.4 7.5 7.6 7.7 7.6 7.5 7.3 7.3 6.9 6.6 6.9 7.1 7.1
8.1 8.2 8.3 8.2 8.1 7.9 7.7 7.5 7.7 7.7 7.8 8.4 8.8 8.9 8.9 8.5 8.5 8.1 7.9 8.1 8.1 8.4 8.7 8.2 7.3 7.3 7.1 6.9 6.6 6.6 6.4 7.3 7.5 7.5 7.2 7.4 7.5 7.7 7.4 7.3 7.6 6.9 6.9 6.9
8.0 8.3 8.2 8.0 8.0 7.9 7.9 7.8 8.1 8.1 8.3 8.6 8.7 8.5 8.1 8.1 8.4 8.3 8.2 8.1 8.4 8.6 8.6 8.4 8.1 7.9 7.7 7.5 6.9 6.7 6.7 6.5 6.8 7.0 7.1 7.6 7.7 7.6 7.4 7.3 7.4 6.6 7.0 7.2
8.0 8.2 8.0 8.0 8.1 8.4 8.6 8.9 8.8 8.7 8.7 8.6 8.3 8.4 8.3 8.3 8.3 8.4 8.3 8.4 8.4 8.5 8.7 8.7 9.0 8.5 8.0 7.8 7.6 7.1 6.9 6.6 6.6 6.5 6.4 6.8 7.5 7.5 7.2 7.2 7.2 7.5 7.6 7.3
8.2 8.3 8.2 8.4 8.5 8.5 8.6 8.8 8.7 8.8 8.6 8.5 8.4 8.3 8.3 8.6 8.6 8.4 8.5 8.5 8.4 8.6 9.0 9.2 8.8 8.9 8.8 8.2 7.5 7.3 7.8 7.2 6.7 6.5 6.6 6.8 7.0 7.2 7.5 7.4 7.4 7.5 7.2 7.0
8.0 8.1 8.3 8.5 8.6 8.7 8.6 8.6 8.6 8.5 8.5 8.5 8.2 8.1 8.2 8.4 8.4 8.4 8.4 8.4 8.5 8.8 9.1 9.1 8.8 8.8 8.9 8.8 8.6 8.1 8.0 7.9 7.3 6.8 6.6 6.6 6.5 6.5 6.5 6.8 7.2 7.4 7.4 7.2
7.9 8.2 8.5 8.6 8.5 8.7 8.5 8.3 8.5 8.4 8.5 8.4 8.2 8.0 8.5 8.3 8.4 8.4 8.5 8.6 9.0 8.9 8.8 8.7 8.7 8.6 8.7 8.6 8.3 8.2 8.1 8.3 8.1 7.3 6.5 6.0 5.9 6.1 6.1 6.0 6.3 6.6 6.8 7.1
Wind_Speed
20 21 22 23 24 25 10 3 3 3 4 2 3 2 3 7 19 17 11 5 6 5 6 12 12 6 10 5 15 5 7 5 6 9 3 3 1 4 5 5 6 2 4 5
19 20 21 22 22 20 4 3 3 4 3 2 2 6 11 15 17 16 8 8 7 13 7 6 8 10 4 2 1 9 4 1 4 2 4 3 2 6 5 6 4 5 5 5
18 20 20 20 20 18 4 3 4 3 1 3 5 4 8 13 11 18 16 14 15 7 10 4 6 5 5 3 2 1 6 5 7 8 6 3 4 5 7 6 4 4 5 4
18 19 19 19 18 15 3 2 3 2 3 4 11 10 6 10 11 11 9 6 9 11 6 7 4 6 3 3 3 1 5 5 6 6 7 10 8 10 8 8 6 8 5 9
17 18 19 19 17 13 1 1 2 4 5 8 10 7 3 12 14 10 12 12 12 11 9 5 7 7 3 4 1 3 2 1 4 1 4 15 15 16 16 11 10 11 9 8
16 17 18 18 17 9 1 2 4 3 5 5 5 4 6 11 14 11 11 11 12 10 8 5 6 5 7 4 7 5 3 5 3 4 2 7 9 13 19 15 13 13 10 14
15 16 16 17 16 10 2 2 2 4 3 4 6 14 17 16 14 12 13 13 8 4 8 4 5 5 10 6 4 5 5 6 4 3 3 8 6 8 6 13 14 10 12 8
15 15 16 16 17 14 3 3 2 3 3 4 11 13 12 15 15 12 7 13 10 11 4 3 2 4 7 5 1 5 5 5 3 5 4 4 6 5 6 6 8 10 11 11
15 14 15 16 16 14 3 3 3 2 5 4 13 12 12 9 5 6 5 7 10 4 1 2 3 4 5 4 0 5 6 4 5 4 6 8 8 10 6 1 8 6 7 14
15 15 14 14 15 15 4 3 4 1 2 5 6 4 7 4 3 4 4 8 9 5 1 2 3 3 3 6 8 5 3 2 8 2 3 6 5 7 4 7 6 7 2 5
16 15 14 13 14 14 3 4 2 1 2 8 9 9 5 5 2 3 6 6 4 4 2 3 4 3 4 2 5 9 6 5 4 3 3 8 4 6 9 6 5 5 3 3
19 17 15 14 14 14 7 3 4 6 3 5 6 15 15 10 9 3 1 4 3 3 3 3 2 1 2 3 2 3 8 6 5 10 6 7 8 5 4 3 5 4 5 3
19 19 17 16 14 14 8 2 2 1 3 5 3 7 11 9 11 6 4 2 2 1 1 3 3 3 2 2 7 1 1 3 3 3 5 9 7 4 4 3 4 6 5 4
20 19 19 18 16 15 12 2 3 1 3 3 5 8 4 11 5 7 5 5 3 3 2 2 3 2 5 3 4 2 4 5 2 5 8 8 10 3 5 4 2 4 6 4
22 21 19 21 18 15 13 6 6 8 2 3 4 11 12 10 5 5 6 6 5 3 2 1 1 3 3 2 3 2 1 4 5 4 7 2 4 11 9 9 7 4 4 3
22 26 26 19 19 14 1 3 2 9 4 2 3 4 7 6 6 11 5 5 4 3 3 2 3 2 1 2 2 6 3 6 2 3 3 5 9 10 8 5 7 5 2 3
29 26 22 17 18 8 3 3 3 9 5 2 3 3 4 8 4 3 2 5 3 3 2 2 2 2 3 2 3 7 12 10 12 11 6 4 6 8 13 9 7 5 3 7
22 17 15 17 17 12 6 5 5 2 1 1 2 4 3 3 2 2 3 3 2 2 3 2 2 1 3 3 6 5 7 9 8 7 8 5 3 4 11 6 7 3 6 3
14 8 13 5 3 3 3 9 13 9 3 2 2 2 3 4 3 2 3 2 1 3 2 3 2 2 4 6 8 7 9 7 7 8 7 6 6 9 8 8 7 6 4 5
6 5 2 3 4 8 14 3 2 1 2 3 3 2 3 2 3 3 2 1 3 1 4 3 3 3 8 9 12 13 12 11 9 6 8 11 6 5 7 8 4 5 6 5
2 2 2 2 18 3 1 2 2 3 3 4 4 8 4 2 2 2 1 2 2 1 4 6 3 3 5 13 14 13 15 15 12 7 6 7 8 7 6 11 8 3 6 3
5 4 4 2 0 1 4 4 3 4 5 4 5 4 7 4 3 2 2 1 1 4 2 3 2 3 6 2 7 1 9 9 12 1 10 13 12 9 6 9 7 6 5 6
3 1 4 3 3 3 7 7 4 3 3 4 3 2 5 2 2 2 3 2 3 1 2 2 4 5 6 6 8 3 5 6 6 7 9 7 1 8 8 5 7 8 5 6
2 4 5 4 4 6 5 6 4 5 3 4 2 1 2 2 2 1 2 4 1 2 1 4 3 4 3 3 4 5 4 4 6 5 6 6 6 3 4 3 4 4 7 6
3 3 5 6 4 5 5 5 4 4 1 3 4 1 1 3 2 2 2 1 3 4 4 3 2 6 6 3 5 5 3 3 3 2 3 6 6 5 5 5 6 5 5 6
3 4 2 3 4 3 3 2 3 3 2 3 3 2 3 4 3 4 5 3 5 3 3 3 4 2 3 3 1 6 5 5 3 3 4 6 8 7 7 6 6 5 5 7
3 4 3 4 2 4 4 3 3 3 3 3 3 6 7 2 2 4 5 4 4 4 4 2 2 4 6 5 1 1 2 2 3 4 5 6 6 7 9 8 7 7 8 9
Wind_Direction
338 339 342 342 347 343 340 303 295 303 17 184 235 194 229 269 279 300 301 299 311 298 315 210 208 204 197 205 221 226 201 152 162 189 120 83 322 171 129 135 265 192 138 272
339 339 341 343 347 349 331 299 262 294 106 227 257 284 271 237 275 280 301 300 298 324 306 329 199 199 238 49 25 208 191 136 103 85 2 321 212 215 153 118 106 207 131 261
338 339 340 342 344 343 352 309 315 314 215 273 313 306 272 257 236 256 276 288 313 331 312 277 295 218 187 6 86 282 129 144 151 187 197 139 207 225 149 130 123 169 205 192
338 339 346 342 340 337 15 320 277 55 320 350 330 320 310 314 287 245 259 276 273 284 293 311 350 326 35 38 32 303 109 144 135 186 164 183 205 222 225 182 175 174 200 221
334 338 347 346 339 332 62 286 319 340 292 302 317 304 280 279 278 276 284 239 263 278 292 271 328 291 178 206 48 75 8 100 102 291 240 198 214 213 218 219 194 207 195 232
330 335 341 345 337 341 316 332 295 281 283 306 318 269 339 319 316 280 269 277 263 263 283 353 295 342 310 271 156 148 134 119 92 227 261 315 257 212 210 214 224 214 197 220
321 328 334 336 334 325 274 302 294 270 284 318 294 311 316 326 311 305 313 317 320 256 1 337 336 18 340 353 206 142 141 121 98 177 113 247 251 202 183 208 222 220 219 219
319 323 325 328 333 324 291 293 292 295 295 313 307 329 323 323 322 306 281 298 290 319 326 10 29 5 351 307 184 197 149 124 125 143 204 273 235 215 215 188 251 210 202 216
310 314 316 320 324 323 317 267 229 269 308 258 339 315 300 321 320 314 287 319 335 34 173 103 160 207 183 251 94 179 183 130 132 137 178 215 198 260 246 28 262 242 207 207
298 300 307 310 314 320 315 282 294 205 268 262 322 326 324 319 330 296 354 338 334 31 316 113 178 239 218 194 161 166 171 125 189 121 202 275 247 244 231 210 244 226 171 222
290 289 291 298 303 310 303 290 313 263 265 289 275 309 308 336 33 325 347 327 32 340 271 163 202 190 248 241 190 192 163 151 184 120 141 255 205 277 194 223 180 116 29 60
289 283 280 281 287 297 300 276 323 337 214 274 321 277 259 256 273 185 11 330 350 39 312 343 289 286 225 196 224 229 201 181 189 188 200 213 213 215 198 159 130 91 103 40
290 281 273 270 272 280 281 238 234 300 276 279 234 260 275 247 228 193 137 167 175 132 199 328 282 273 14 226 238 61 124 307 319 37 223 210 230 266 168 121 129 122 98 67
292 285 271 261 260 263 272 224 178 201 269 274 285 346 334 331 269 165 180 133 191 151 161 213 294 296 18 347 300 0 202 130 354 291 314 201 229 212 195 194 133 150 139 123
289 291 274 259 250 250 265 254 225 198 195 304 294 299 284 242 243 227 192 165 186 184 187 159 276 315 326 300 295 267 214 146 165 241 286 357 332 330 286 190 194 188 144 124
282 285 273 245 243 231 73 301 19 224 174 263 296 286 283 255 196 222 194 191 216 208 149 202 234 245 3 313 250 285 344 360 161 227 341 22 311 297 299 258 164 160 201 236
282 265 256 238 222 201 170 202 165 46 186 194 293 272 260 222 187 31 279 199 196 178 181 226 223 196 115 253 249 323 329 321 328 326 318 119 285 312 318 340 263 173 150 213
278 258 247 207 209 211 233 228 200 78 139 308 275 267 311 360 204 175 214 200 177 252 201 289 200 252 169 250 254 281 289 290 283 315 337 14 253 318 307 261 352 147 126 83
262 233 191 171 180 166 216 206 199 185 176 277 237 230 274 358 310 167 352 132 113 229 188 214 141 235 222 233 242 243 258 280 308 328 316 6 4 339 316 317 345 44 313 165
154 123 134 207 184 155 109 48 128 190 214 223 241 263 271 72 353 282 118 155 215 194 228 147 164 250 252 261 278 286 287 289 304 330 349 344 329 331 326 319 272 357 24 314
84 147 217 31 141 89 142 160 173 214 218 209 230 204 203 200 153 270 102 205 220 235 247 160 219 239 238 240 242 252 270 271 273 275 297 293 305 312 333 317 327 12 335 318
172 130 70 67 62 185 134 197 230 209 227 207 199 208 189 177 153 143 247 159 250 247 222 107 229 242 267 277 242 243 317 235 264 190 350 302 269 278 8 333 340 351 343 333
67 101 158 177 177 188 181 206 217 210 207 226 195 238 168 116 151 185 179 203 237 278 42 221 231 260 281 48 37 6 75 66 47 33 359 335 355 37 49 10 332 321 4 4
166 197 167 206 184 222 202 212 193 230 229 199 168 96 182 182 111 176 165 230 68 308 258 226 254 283 160 177 146 95 21 34 343 357 352 359 21 18 352 315 296 333 322 321
189 207 210 209 218 232 224 212 229 235 238 98 93 99 183 199 145 194 202 273 239 215 222 227 171 277 283 267 186 164 177 182 258 299 319 318 314 309 302 297 298 291 276 290
214 233 260 250 180 245 244 235 235 139 106 86 82 261 143 217 182 166 211 221 205 231 241 187 209 226 321 310 166 188 191 208 242 305 312 309 310 299 269 258 260 253 245 262
225 238 227 256 247 202 216 216 248 143 112 132 181 195 201 139 201 210 197 208 228 240 268 267 308 242 236 255 238 33 360 317 287 271 276 277 278 279 274 269 275 262 248 224